Location: Gunnison Valley Observatory
(38.5087°N, 106.9386°W)
Time: 03:59:30
(UTC-06:00)

Amateur Radio Satellites - All Passes

Search period start: 22 May 2015 03:29
Search period end: 23 May 2015 03:29
Location: Gunnison Valley Observatory, 38.5087°N, 106.9386°W

Satellite Date Start Highest point End Downlink Frequencies (MHz)
Time Altitude Azimuth
AO-7 22 May 03:33:45 03:37:22 14° 87° (E) 03:41:40 29.400- 29.500
BEESAT 2 22 May 03:42:42 03:44:50 14° 43° (NE) 03:47:05 435.950
SO-50 22 May 03:48:37 03:51:26 17° 110° (ESE) 03:54:30 436.795
HORYU 2 22 May 04:01:04 04:04:19 20° 93° (E) 04:07:41 437.375
MOZHAYETS 4 22 May 04:05:33 04:09:04 23° 69° (ENE) 04:12:42
PCSat 22 May 04:14:43 04:18:15 17° 316° (NW) 04:21:37 145.827
Cosmos 2499 22 May 04:16:44 04:23:23 44° 270° (W) 04:29:58 435.465 / 435.565
JAS-2 22 May 04:21:37 04:26:10 31° 96° (E) 04:30:49 435.910
AIST 2 22 May 04:34:30 04:36:52 15° 43° (NE) 04:39:20 435.215
STARS 22 May 04:35:31 04:38:48 19° 267° (W) 04:41:58 437.465
BEESAT 3 22 May 04:38:08 04:42:09 55° 56° (NE) 04:46:06 437.485
VERMONT LUNAR 22 May 04:42:08 04:45:14 48° 157° (SSE) 04:48:20 437.305
ITAMSAT 1 22 May 05:00:13 05:03:46 18° 295° (WNW) 05:07:08 435.822/435.867
Gurwin Techsat 1B 22 May 05:05:32 05:09:06 18° 295° (WNW) 05:12:27 435.225
BEESAT 2 22 May 05:19:19 05:23:23 63° 242° (WSW) 05:27:21 435.950
AO-7 22 May 05:23:11 05:31:36 81° 106° (ESE) 05:39:59 29.400- 29.500
SO-50 22 May 05:26:59 05:31:34 53° 306° (NW) 05:36:19 436.795
CUBESAT XI-V 22 May 05:30:02 05:32:21 14° 66° (ENE) 05:34:52 437.345
HORYU 2 22 May 05:37:04 05:41:04 33° 289° (WNW) 05:45:00 437.375
PHONESAT 2.4 22 May 05:41:54 05:45:11 42° 155° (SSE) 05:48:28 2401.200-2431.200
MOZHAYETS 4 22 May 05:42:01 05:46:09 32° 264° (W) 05:50:15
PRISM 22 May 06:03:23 06:05:22 14° 66° (ENE) 06:07:31 437.425
JAS-2 22 May 06:06:55 06:11:18 27° 292° (WNW) 06:15:34 435.910
AIST 2 22 May 06:11:43 06:15:54 62° 242° (WSW) 06:19:58 435.215
STRAND 1 22 May 06:12:07 06:15:35 19° 66° (ENE) 06:19:13 437.568
BEESAT 3 22 May 06:18:12 06:19:42 11° 251° (WSW) 06:20:58 437.485
VERMONT LUNAR 22 May 06:19:15 06:22:26 62° 353° (N) 06:25:37 437.305
ISS 22 May 06:26:10 06:27:12 11° 14° (NNE) 06:28:18 145.825
CUTE-I 22 May 06:31:36 06:35:36 22° 93° (E) 06:39:46 437.470
M-CUBED/EXP-1 PRIME 22 May 06:37:45 06:41:37 31° 68° (ENE) 06:45:17 437.505
Cosmos 2491 22 May 06:40:13 06:48:00 35° 71° (ENE) 06:55:56 435.465 / 435.565
Cubesat XI-IV 22 May 06:49:56 06:54:43 33° 96° (E) 06:59:33 437.490
AUBIESAT-1 22 May 06:51:03 06:55:04 37° 69° (ENE) 06:58:51 437.475
CUBESAT XI-V 22 May 07:04:52 07:09:23 55° 261° (W) 07:13:55 437.345
AO-7 22 May 07:17:22 07:23:36 23° 304° (NW) 07:29:33 29.400- 29.500
PHONESAT 2.4 22 May 07:19:47 07:23:15 69° 351° (N) 07:26:42 2401.200-2431.200
YUBILEINY 22 May 07:32:33 07:39:56 33° 86° (E) 07:47:31 435.215
PRISM 22 May 07:36:32 07:40:28 45° 261° (W) 07:44:25 437.425
STRAND 1 22 May 07:49:34 07:54:28 48° 261° (W) 07:59:24 437.568
VERMONT LUNAR 22 May 07:56:37 07:59:49 71° 10° (N) 08:03:01 437.305
ISS 22 May 08:01:15 08:04:21 39° 33° (NNE) 08:07:28 145.825
CUTE-I 22 May 08:10:50 08:15:55 44° 289° (WNW) 08:20:57 437.470
M-CUBED/EXP-1 PRIME 22 May 08:12:54 08:16:27 22° 260° (W) 08:19:43 437.505
AUBIESAT-1 22 May 08:26:50 08:29:55 18° 261° (W) 08:32:43 437.475
Cubesat XI-IV 22 May 08:30:07 08:34:45 30° 292° (WNW) 08:39:19 437.490
Cosmos 2491 22 May 08:36:46 08:45:11 49° 270° (W) 08:53:27 435.465 / 435.565
CANX-2 22 May 08:49:13 08:51:42 16° 91° (E) 08:54:21 2200.000
CUTE 1.7 + AOD 2 22 May 08:53:35 08:56:06 16° 91° (E) 08:58:47 437.475
PHONESAT 2.4 22 May 08:58:05 09:01:32 68° 8° (N) 09:05:00 2401.200-2431.200
BRITE-PL 22 May 08:58:14 09:03:52 58° 99° (E) 09:09:18 437.365/2234.400
AIST 1 22 May 09:05:05 09:09:28 78° 264° (W) 09:13:50
DOVE 4 22 May 09:17:43 09:22:28 36° 95° (E) 09:27:02 437.250
SEEDS 22 May 09:23:50 09:27:27 29° 95° (E) 09:31:07 437.485
YUBILEINY 22 May 09:27:59 09:36:29 51° 284° (WNW) 09:44:55 435.215
RS-15 22 May 09:28:14 09:38:12 46° 110° (ESE) 09:48:32 29.354- 29.394
GOMX 1 22 May 09:28:20 09:33:49 71° 100° (E) 09:39:01 467.674
VERMONT LUNAR 22 May 09:33:59 09:36:56 34° 206° (SSW) 09:39:53 437.305
CINEMA 3 22 May 09:35:34 09:39:28 25° 93° (E) 09:43:19 145.822/145.860
ISS 22 May 09:38:09 09:40:37 19° 228° (SW) 09:43:01 145.825
HO-68 22 May 09:42:26 09:49:31 62° 102° (ESE) 09:56:35 435.675
COMPASS 1 22 May 09:45:30 09:49:26 41° 98° (E) 09:53:22 437.405
TIGRISAT 22 May 09:53:05 09:56:10 18° 67° (ENE) 09:59:23 435.000
ZACube-1 22 May 09:54:09 09:54:40 10° 87° (E) 09:55:29 437.345
AAUSAT CUBESAT 2 22 May 10:02:10 10:06:15 56° 100° (E) 10:10:18 437.432
UNISAT 6 22 May 10:10:11 10:14:06 27° 70° (ENE) 10:18:06 437.425
Cosmos 2504 22 May 10:14:16 10:21:42 36° 88° (E) 10:28:55 435.465 / 435.565
Oscar 11 22 May 10:16:05 10:20:02 35° 97° (E) 10:24:00 145.826/435.025
NANOSAT C BR1 22 May 10:16:16 10:18:09 13° 66° (ENE) 10:20:14 145.865
QB50P2 22 May 10:19:46 10:22:07 15° 67° (ENE) 10:24:38 145.880/145.840
CANX-2 22 May 10:23:55 10:27:51 38° 287° (WNW) 10:31:44 2200.000
UWE-3 22 May 10:24:49 10:28:48 32° 96° (E) 10:32:41 435.000/436.395/437.385
CUTE 1.7 + AOD 2 22 May 10:28:18 10:32:14 38° 287° (WNW) 10:36:07 437.475
HUMSAT D 22 May 10:30:49 10:32:18 12° 89° (E) 10:34:01 437.325/437.525
POPSAT HIP 1 22 May 10:32:38 10:35:41 20° 68° (ENE) 10:38:53 437.405
PHONESAT 2.4 22 May 10:36:18 10:39:36 43° 205° (SSW) 10:42:55 2401.200-2431.200
BRITE-PL 22 May 10:37:49 10:41:55 20° 294° (WNW) 10:45:45 437.365/2234.400
DUCHIFAT 1 22 May 10:38:45 10:42:02 23° 69° (ENE) 10:45:25 145.980
FUNcube-1 22 May 10:49:02 10:53:15 46° 98° (E) 10:57:21 145.935
ANTELSAT 22 May 10:52:27 10:57:10 78° 76° (ENE) 11:01:52 437.575/2403.000
DOVE 4 22 May 10:55:44 11:00:02 26° 292° (WNW) 11:04:04 437.250
SEEDS 22 May 10:59:56 11:03:08 21° 290° (WNW) 11:06:13 437.485
CUBEBUG 2 22 May 11:02:19 11:06:52 75° 284° (WNW) 11:11:13 437.445
50 SAT 22 May 11:04:39 11:06:59 16° 92° (E) 11:09:28 437.505
DELFI C3 22 May 11:04:53 11:08:54 80° 283° (WNW) 11:12:54 145.870
GOMX 1 22 May 11:08:10 11:11:18 15° 296° (WNW) 11:14:09 467.674
CINEMA 3 22 May 11:12:26 11:16:42 31° 290° (WNW) 11:20:44 145.822/145.860
POLYITAN 1 22 May 11:14:58 11:19:12 61° 75° (ENE) 11:23:29 437.675
QB50P1 22 May 11:15:59 11:20:11 62° 75° (ENE) 11:24:27 145.935-145.965
PCSat 22 May 11:18:12 11:23:24 45° 56° (NE) 11:28:35 145.827
ESTCUBE 1 22 May 11:18:24 11:20:27 13° 90° (E) 11:22:46 437.505/2401.250
COMPASS 1 22 May 11:22:20 11:24:49 15° 292° (WNW) 11:27:07 437.405
BUGSAT 1 22 May 11:24:56 11:28:54 50° 74° (ENE) 11:32:58 437.445
ZACube-1 22 May 11:27:13 11:31:34 61° 285° (WNW) 11:35:47 437.345
TIGRISAT 22 May 11:28:04 11:32:35 45° 262° (W) 11:37:06 435.000
HO-68 22 May 11:31:07 11:36:47 25° 299° (WNW) 11:42:14 435.675
VELOX 1 22 May 11:34:44 11:38:50 35° 97° (E) 11:42:56 145.980
RS-15 22 May 11:39:58 11:50:31 51° 312° (NW) 12:01:19 29.354- 29.394
AAUSAT CUBESAT 2 22 May 11:39:58 11:41:25 11° 294° (WNW) 11:42:40 437.432
UKube-1 22 May 11:39:59 11:44:21 79° 102° (ESE) 11:48:42 .
DX 1 22 May 11:40:52 11:45:18 87° 103° (ESE) 11:49:41 434.975-435.025
UNISAT 6 22 May 11:46:44 11:50:50 28° 265° (W) 11:54:51 437.425
CUBEBUG 1 22 May 11:48:29 11:52:08 25° 95° (E) 11:55:50 437.445
NANOSAT C BR1 22 May 11:49:24 11:53:34 53° 260° (W) 11:57:46 145.865
Oscar 11 22 May 11:52:57 11:56:00 19° 292° (WNW) 11:58:55 145.826/435.025
QB50P2 22 May 11:53:32 11:57:40 46° 262° (W) 12:01:49 145.880/145.840
UWE-3 22 May 12:01:44 12:05:09 21° 292° (WNW) 12:08:23 435.000/436.395/437.385
AISAT 22 May 12:04:08 12:08:40 79° 102° (ESE) 12:13:09 437.250
HUMSAT D 22 May 12:04:22 12:08:27 49° 286° (WNW) 12:12:26 437.325/437.525
Cosmos 2504 22 May 12:06:56 12:15:01 44° 285° (WNW) 12:22:32 435.465 / 435.565
POPSAT HIP 1 22 May 12:07:29 12:11:23 33° 264° (W) 12:15:15 437.405
DUCHIFAT 1 22 May 12:14:00 12:17:44 28° 265° (W) 12:21:25 145.980
SO-50 22 May 12:20:41 12:23:23 15° 40° (NE) 12:26:13 436.795
FUNcube-1 22 May 12:26:38 12:29:12 15° 294° (WNW) 12:31:34 145.935
50 SAT 22 May 12:38:20 12:41:51 32° 288° (WNW) 12:45:18 437.505
SPROUT 22 May 12:47:24 12:51:13 30° 96° (E) 12:55:03 437.525
ESTCUBE 1 22 May 12:53:18 12:57:42 53° 287° (WNW) 13:02:07 437.505/2401.250
POLYITAN 1 22 May 12:54:46 12:55:36 10° 272° (W) 12:56:09 437.675
Oscar 19 22 May 12:55:12 12:59:26 27° 68° (ENE) 13:03:47 437.125/150
QB50P1 22 May 12:56:07 12:56:33 10° 272° (W) 12:56:42 145.935-145.965
PCSat 22 May 13:02:16 13:06:33 23° 252° (WSW) 13:10:41 145.827
BUGSAT 1 22 May 13:03:12 13:04:46 12° 271° (W) 13:06:06 437.445
VELOX 1 22 May 13:11:48 13:15:12 21° 292° (WNW) 13:18:27 145.980
CUSAT 1 22 May 13:21:03 13:27:07 38° 88° (E) 13:34:24 437.405
CUBEBUG 1 22 May 13:24:40 13:28:28 28° 290° (WNW) 13:32:12 437.445
TISAT 1 22 May 13:30:44 13:35:01 70° 101° (ESE) 13:39:15 437.305
ITUPSAT 1 22 May 13:34:16 13:34:54 10° 88° (E) 13:35:54 437.325
BEESAT 22 May 13:43:44 13:46:11 14° 90° (E) 13:48:51 436.000
SWISSCUBE 22 May 13:50:42 13:53:59 19° 92° (E) 13:57:26 437.505
GONETS M04 22 May 13:55:12 14:03:48 61° 92° (E) 14:12:29
DANDE 22 May 13:57:03 14:03:14 55° 92° (E) 14:11:01 436.750
RS-15 22 May 13:59:00 14:06:36 20° 343° (NNW) 14:14:10 29.354- 29.394
SO-50 22 May 13:59:41 14:04:41 88° 234° (SW) 14:09:33 436.795
SPROUT 22 May 14:23:45 14:27:10 22° 291° (WNW) 14:30:27 437.525
AO-7 22 May 14:31:11 14:36:41 21° 55° (NE) 14:42:30 29.400- 29.500
Oscar 19 22 May 14:33:54 14:38:40 35° 263° (W) 14:43:24 437.125/150
JAS-2 22 May 14:34:04 14:37:32 15° 63° (ENE) 14:41:07 435.910
JUGNU 22 May 14:35:06 14:37:01 12° 179° (S) 14:38:57 437.505
ITAMSAT 1 22 May 14:36:03 14:41:12 72° 74° (ENE) 14:46:22 435.822/435.867
Gurwin Techsat 1B 22 May 14:43:53 14:49:10 78° 76° (ENE) 14:54:31 435.225
HORYU 2 22 May 14:58:33 15:01:25 17° 67° (ENE) 15:04:26 437.375
Cosmos 2499 22 May 14:58:57 15:05:27 27° 87° (E) 15:11:51 435.465 / 435.565
CUSAT 1 22 May 15:03:18 15:09:46 41° 290° (WNW) 15:17:17 437.405
ITUPSAT 1 22 May 15:08:38 15:13:25 73° 285° (WNW) 15:18:11 437.325
KKS-1 22 May 15:09:26 15:12:39 20° 93° (E) 15:15:59 437.445
TISAT 1 22 May 15:09:39 15:10:16 10° 296° (WNW) 15:10:38 437.305
BEESAT 22 May 15:19:46 15:24:25 54° 287° (WNW) 15:29:04 436.000
SWISSCUBE 22 May 15:27:34 15:32:04 41° 288° (WNW) 15:36:31 437.505
DANDE 22 May 15:41:18 15:47:05 29° 296° (WNW) 15:53:44 436.750
SRMSAT 22 May 15:42:46 15:44:29 11° 175° (S) 15:46:14 437.500
GONETS M04 22 May 15:53:51 16:01:19 28° 292° (WNW) 16:08:31
JAS-2 22 May 16:15:01 16:22:08 87° 256° (WSW) 16:28:25 435.910
RS-15 22 May 16:17:15 16:24:58 20° 19° (NNE) 16:33:10 29.354- 29.394
ITAMSAT 1 22 May 16:19:09 16:21:20 12° 272° (W) 16:23:11 435.822/435.867
AO-7 22 May 16:20:16 16:28:34 88° 251° (WSW) 16:36:56 29.400- 29.500
STARS 22 May 16:25:12 16:29:40 86° 103° (ESE) 16:34:04 437.465
Gurwin Techsat 1B 22 May 16:27:58 16:29:52 11° 273° (W) 16:31:24 435.225
HORYU 2 22 May 16:33:29 16:37:47 43° 262° (W) 16:42:03 437.375
KKS-1 22 May 16:45:19 16:49:26 35° 289° (WNW) 16:53:27 437.445
Cosmos 2499 22 May 16:50:05 16:58:16 56° 282° (WNW) 17:05:51 435.465 / 435.565
O/OREOS (USA 219) 22 May 17:14:10 17:18:42 75° 292° (WNW) 17:23:13 437.305
SRMSAT 22 May 17:31:09 17:32:46 11° 185° (S) 17:34:21 437.500
MOZHAYETS 4 22 May 17:37:56 17:42:29 65° 100° (E) 17:47:00
YUBILEINY 22 May 17:45:44 17:49:32 14° 58° (ENE) 17:53:58 435.215
CUTE-I 22 May 17:51:58 17:56:34 32° 69° (ENE) 18:01:15 437.470
JAS-2 22 May 18:04:52 18:07:55 13° 272° (W) 18:10:21 435.910
Cubesat XI-IV 22 May 18:10:31 18:15:33 47° 72° (ENE) 18:20:40 437.490
AO-7 22 May 18:17:42 18:22:38 16° 272° (W) 18:26:59 29.400- 29.500
RS-15 22 May 18:29:53 18:41:05 52° 49° (NE) 18:52:50 29.354- 29.394
BEESAT 3 22 May 18:31:19 18:33:28 14° 110° (ESE) 18:35:47 437.485
CUBESAT XI-V 22 May 19:02:57 19:07:21 40° 97° (E) 19:11:47 437.345
BEESAT 2 22 May 19:11:42 19:15:23 33° 115° (ESE) 19:19:08 435.950
MOZHAYETS 4 22 May 19:17:18 19:19:14 12° 295° (WNW) 19:20:55
PRISM 22 May 19:20:29 19:23:55 25° 96° (E) 19:27:24 437.425
CUTE-I 22 May 19:31:58 19:36:38 30° 264° (W) 19:41:15 437.470
Cosmos 2491 22 May 19:39:28 19:47:25 42° 88° (E) 19:55:33 435.465 / 435.565
YUBILEINY 22 May 19:39:30 19:48:13 76° 81° (E) 19:56:55 435.215
CANX-2 22 May 19:42:57 19:43:39 10° 65° (ENE) 19:44:36 2200.000
CUTE 1.7 + AOD 2 22 May 19:47:13 19:47:58 11° 65° (ENE) 19:48:59 437.475
Cubesat XI-IV 22 May 19:52:03 19:55:58 20° 268° (W) 19:59:43 437.490
M-CUBED/EXP-1 PRIME 22 May 19:55:21 19:58:00 22° 100° (E) 20:00:40 437.505
STRAND 1 22 May 20:01:14 20:06:22 64° 102° (ESE) 20:11:28 437.568
BEESAT 3 22 May 20:07:09 20:11:05 46° 305° (NW) 20:15:05 437.485
BRITE-PL 22 May 20:07:21 20:12:05 52° 73° (ENE) 20:17:15 437.365/2234.400
AUBIESAT-1 22 May 20:08:01 20:10:54 28° 102° (ESE) 20:13:48 437.475
AIST 2 22 May 20:08:09 20:12:05 39° 115° (ESE) 20:16:06 435.215
HO-68 22 May 20:09:29 20:16:00 40° 66° (ENE) 20:22:38 435.675
SEEDS 22 May 20:15:15 20:18:07 18° 69° (ENE) 20:21:04 437.485
DOVE 4 22 May 20:21:29 20:25:50 31° 70° (ENE) 20:30:26 437.250
GOMX 1 22 May 20:34:26 20:39:19 63° 75° (ENE) 20:44:35 467.674
COMPASS 1 22 May 20:35:44 20:39:06 24° 70° (ENE) 20:42:33 437.405
CINEMA 3 22 May 20:35:47 20:39:27 22° 68° (ENE) 20:43:19 145.822/145.860
CUBESAT XI-V 22 May 20:41:07 20:44:32 20° 292° (WNW) 20:47:49 437.345
RS-15 22 May 20:42:34 20:53:37 49° 249° (WSW) 21:04:53 29.354- 29.394
BEESAT 2 22 May 20:50:14 20:53:33 22° 312° (NW) 20:56:49 435.950
AAUSAT CUBESAT 2 22 May 20:51:41 20:55:22 31° 72° (ENE) 20:59:06 437.432
PRISM 22 May 20:55:56 20:59:18 24° 290° (WNW) 21:02:35 437.425
Oscar 11 22 May 21:09:51 21:13:18 24° 70° (ENE) 21:16:50 145.826/435.025
CANX-2 22 May 21:14:50 21:19:05 67° 259° (W) 21:23:21 2200.000
CUTE 1.7 + AOD 2 22 May 21:19:08 21:23:24 66° 259° (W) 21:27:39 437.475
UWE-3 22 May 21:20:31 21:24:14 25° 69° (ENE) 21:28:05 435.000/436.395/437.385
M-CUBED/EXP-1 PRIME 22 May 21:30:32 21:32:46 17° 296° (WNW) 21:34:54 437.505
AIST 1 22 May 21:32:53 21:37:05 66° 96° (E) 21:41:20
Cosmos 2491 22 May 21:36:07 21:44:19 41° 287° (WNW) 21:52:28 435.465 / 435.565
YUBILEINY 22 May 21:38:09 21:44:13 20° 278° (W) 21:49:51 435.215
STRAND 1 22 May 21:42:04 21:45:05 15° 296° (WNW) 21:47:54 437.568
FUNcube-1 22 May 21:43:09 21:47:12 32° 71° (ENE) 21:51:19 145.935
AUBIESAT-1 22 May 21:43:44 21:45:31 14° 297° (WNW) 21:47:10 437.475
AIST 2 22 May 21:47:30 21:50:49 21° 313° (NW) 21:54:05 435.215
BRITE-PL 22 May 21:47:51 21:51:05 17° 272° (W) 21:54:15 437.365/2234.400
SEEDS 22 May 21:49:46 21:53:41 35° 263° (W) 21:57:34 437.485
DELFI C3 22 May 21:50:40 21:54:33 48° 74° (ENE) 21:58:28 145.870
HO-68 22 May 21:57:09 22:03:46 37° 263° (W) 22:10:18 435.675
CUBEBUG 2 22 May 21:58:18 22:03:02 77° 75° (ENE) 22:07:49 437.445
DOVE 4 22 May 21:59:13 22:03:34 29° 267° (W) 22:08:02 437.250
Cosmos 2504 22 May 22:00:53 22:08:03 61° 79° (E) 22:15:09 435.465 / 435.565
COMPASS 1 22 May 22:11:11 22:14:43 25° 265° (W) 22:18:10 437.405
CINEMA 3 22 May 22:11:44 22:16:23 41° 263° (W) 22:21:07 145.822/145.860
GOMX 1 22 May 22:15:17 22:18:03 14° 273° (W) 22:20:38 467.674
ESTCUBE 1 22 May 22:18:10 22:19:20 11° 64° (ENE) 22:20:46 437.505/2401.250
ZACube-1 22 May 22:21:00 22:25:35 86° 77° (ENE) 22:30:13 437.345
AAUSAT CUBESAT 2 22 May 22:28:00 22:31:04 19° 267° (W) 22:34:01 437.432
VELOX 1 22 May 22:31:16 22:34:56 27° 69° (ENE) 22:38:40 145.980
UKube-1 22 May 22:33:15 22:37:27 54° 74° (ENE) 22:41:43 .
DX 1 22 May 22:34:52 22:39:09 62° 74° (ENE) 22:43:28 434.975-435.025
CUBEBUG 1 22 May 22:44:02 22:46:55 18° 68° (ENE) 22:49:58 437.445
Oscar 11 22 May 22:45:39 22:49:24 27° 265° (W) 22:53:05 145.826/435.025
ANTELSAT 22 May 22:47:24 22:50:14 17° 91° (E) 22:53:10 437.575/2403.000
HUMSAT D 22 May 22:54:03 22:58:23 89° 257° (WSW) 23:02:45 437.325/437.525
UWE-3 22 May 22:56:26 23:00:38 32° 265° (W) 23:04:49 435.000/436.395/437.385
AISAT 22 May 23:00:21 23:04:42 58° 74° (ENE) 23:09:06 437.250
POLYITAN 1 22 May 23:04:20 23:05:32 11° 89° (E) 23:07:00 437.675
QB50P1 22 May 23:04:59 23:06:12 11° 89° (E) 23:07:41 145.935-145.965
FUNcube-1 22 May 23:19:53 23:23:34 23° 267° (W) 23:27:10 145.935
50 SAT 22 May 23:20:50 23:24:51 74° 258° (WSW) 23:28:52 437.505
TIGRISAT 22 May 23:21:29 23:25:39 40° 98° (E) 23:29:44 435.000
DELFI C3 22 May 23:28:30 23:30:00 11° 270° (W) 23:31:16 145.870
NANOSAT C BR1 22 May 23:36:08 23:39:44 26° 95° (E) 23:43:22 145.865
UNISAT 6 22 May 23:39:39 23:44:05 69° 101° (E) 23:48:23 437.425
QB50P2 22 May 23:40:28 23:44:16 31° 96° (E) 23:48:05 145.880/145.840
SPROUT 22 May 23:40:47 23:43:54 20° 69° (ENE) 23:47:09 437.525
ESTCUBE 1 22 May 23:51:15 23:55:41 69° 259° (WSW) 00:00:10 437.505/2401.250
POPSAT HIP 1 22 May 23:53:46 23:57:51 42° 99° (E) 00:01:55 437.405
Cosmos 2504 22 May 23:55:40 00:00:52 21° 276° (W) 00:05:43 435.465 / 435.565
DUCHIFAT 1 22 May 23:59:34 00:03:43 48° 99° (E) 00:07:51 145.980
CUSAT 1 23 May 00:02:05 00:08:25 28° 65° (ENE) 00:13:53 437.405
VELOX 1 23 May 00:07:43 00:11:27 26° 265° (W) 00:15:07 145.980
GONETS M04 23 May 00:07:59 00:15:05 28° 67° (ENE) 00:22:23
UKube-1 23 May 00:12:16 00:14:00 12° 270° (W) 00:15:29 .
DX 1 23 May 00:14:55 00:15:54 10° 271° (W) 00:16:35 434.975-435.025
CUBEBUG 1 23 May 00:18:58 00:23:02 38° 263° (W) 00:27:06 437.445
TISAT 1 23 May 00:21:25 00:25:23 42° 73° (ENE) 00:29:26 437.305
ANTELSAT 23 May 00:23:07 00:27:14 38° 288° (WNW) 00:31:13 437.575/2403.000
POLYITAN 1 23 May 00:37:39 00:41:53 56° 286° (WNW) 00:46:02 437.675
QB50P1 23 May 00:38:17 00:42:30 56° 286° (WNW) 00:46:40 145.935-145.965
ISS 23 May 00:39:45 00:42:26 24° 133° (SE) 00:45:10 145.825
ITUPSAT 1 23 May 00:39:50 00:41:19 12° 63° (ENE) 00:43:04 437.325
AISAT 23 May 00:40:01 00:41:45 12° 271° (W) 00:43:12 437.250
DANDE 23 May 00:41:02 00:48:50 46° 71° (ENE) 00:55:19 436.750
BUGSAT 1 23 May 00:43:40 00:47:57 73° 284° (WNW) 00:52:12 437.445
BEESAT 23 May 00:49:20 00:51:56 15° 65° (ENE) 00:54:44 436.000
SWISSCUBE 23 May 00:56:18 00:59:35 19° 67° (ENE) 01:03:01 437.505
TIGRISAT 23 May 00:59:10 01:02:06 17° 293° (WNW) 01:04:52 435.000
NANOSAT C BR1 23 May 01:11:59 01:15:30 24° 290° (WNW) 01:18:54 145.865
SPROUT 23 May 01:15:54 01:19:48 32° 264° (W) 01:23:42 437.525
QB50P2 23 May 01:16:43 01:20:01 21° 291° (WNW) 01:23:11 145.880/145.840
UNISAT 6 23 May 01:19:09 01:20:19 11° 296° (WNW) 01:21:13 437.425
POPSAT HIP 1 23 May 01:30:43 01:33:24 16° 293° (WNW) 01:35:55 437.405
DUCHIFAT 1 23 May 01:36:49 01:39:09 14° 294° (WNW) 01:41:17 145.980
CUSAT 1 23 May 01:44:19 01:51:36 50° 269° (W) 01:57:22 437.405
O/OREOS (USA 219) 23 May 01:47:37 01:50:18 16° 55° (NE) 01:53:07 437.305
PCSat 23 May 01:58:12 02:03:27 55° 114° (ESE) 02:08:46 145.827
TISAT 1 23 May 01:58:54 02:01:25 15° 269° (W) 02:03:46 437.305
GONETS M04 23 May 02:03:58 02:12:37 62° 268° (W) 02:21:07
KKS-1 23 May 02:06:58 02:09:39 16° 66° (ENE) 02:12:31 437.445
ITUPSAT 1 23 May 02:13:55 02:18:39 75° 258° (WSW) 02:23:26 437.325
ISS 23 May 02:15:47 02:18:46 32° 328° (NNW) 02:21:46 145.825
BEESAT 23 May 02:24:42 02:29:21 56° 259° (W) 02:34:03 436.000
DANDE 23 May 02:24:42 02:31:49 34° 273° (W) 02:37:39 436.750
SWISSCUBE 23 May 02:32:40 02:37:10 42° 262° (W) 02:41:41 437.505
Cosmos 2499 23 May 02:43:02 02:49:44 45° 76° (ENE) 02:56:30 435.465 / 435.565
Oscar 19 23 May 02:46:22 02:51:34 88° 293° (WNW) 02:56:43 437.125/150
ITAMSAT 1 23 May 02:50:48 02:55:15 28° 95° (E) 02:59:46 435.822/435.867
Gurwin Techsat 1B 23 May 03:01:52 03:06:41 35° 96° (E) 03:11:32 435.225
STARS 23 May 03:20:25 03:24:47 63° 75° (ENE) 03:29:12 437.465
